Regional Weather Roundup
Issued by NWS Charleston, SC

Current Version | Previous Version | Text Only | Print | Product List | Glossary Off
Versions: 1 2 3 4 5 6 7 8 9 10 11 12 13 14 15 16 17 18 19 20 21 22 23 24 25 26 27 28 29 30 31 32 33 34 35 36 37 38 39 40 41 42 43 44 45 46 47 48 49 50

000
ASUS42 KCHS 030426
RWRCHS

REGIONAL WEATHER ROUNDUP
NATIONAL WEATHER SERVICE CHARLESTON SC
1100 PM EST MON MAR 02 2015

NOTE: "FAIR" INDICATES FEW OR NO CLOUDS BELOW 12,000 FEET WITH NO
SIGNIFICANT WEATHER AND/OR OBSTRUCTIONS TO VISIBILITY.

NOT ALL STATIONS ARE QUALITY CONTROLLED BY THE NATIONAL
WEATHER SERVICE. USE DATA WITH CAUTION...ESPECIALLY
DEWPOINT OBSERVATIONS.

SCZ027-030-031-034>040-042>050-030500-
...SOUTHEAST SOUTH CAROLINA...

CITY           SKY/WX    TMP DP  RH WIND       PRES   REMARKS
N CHARLESTON   CLOUDY    57  51  80 E12       30.29S
WATERFRONT PRK   N/A     54 N/A N/A E8          N/A
MOUNT PLEASANT CLOUDY    55  52  88 E6        30.27F
PINOPOLIS        N/A     61  54  77 VRB2      30.21R
MONCKS CORNER  CLOUDY    59  52  77 SE3       30.27F
SUMMERVILLE    CLOUDY    59  54  82 E5        30.29S
BEAUFORT MCAS  CLOUDY    55  53  93 E7        30.27R
BEAUFORT ARPT  CLOUDY    55  55 100 CALM      30.27S
HILTON HEAD IS MOCLDY    55  54  94 N13       30.27S
WALTERBORO     MOCLDY    59  55  88 E6        30.28S
ALLENDALE      CLOUDY    63  57  82 CALM      30.25S

...SOUTHERN MIDLANDS AND PEE DEE...

CITY           SKY/WX    TMP DP  RH WIND       PRES   REMARKS
GEORGETOWN     NOT AVBL
KINGSTREE      NOT AVBL
ORANGEBURG     CLOUDY    59  51  75 E3        30.27S
BARNWELL       CLOUDY    63  55  77 E7        30.26S
AIKEN          CLOUDY    61  54  77 E3        30.29S
MANNING        CLOUDY    59  43  55 CALM      30.28S
COLUMBIA       MOCLDY    61  52  72 E7        30.27R
SUMTER         CLOUDY    57  50  78 E5        30.26S
FLORENCE       FAIR      50  47  89 CALM      30.29R
MYRTLE BEACH   CLOUDY    50  45  81 E15G23    30.33R
N MYRTLE BEACH FAIR      50  45  83 E12       30.31R

$$

GAZ063-065-086>088-099>101-113>116-118-119-134>141-150-030500-
...SOUTHEAST GEORGIA...

CITY           SKY/WX    TMP DP  RH WIND       PRES   REMARKS
SAVANNAH ARPT  FAIR      61  58  90 CALM      30.25S
HUNTER AAF     FAIR      59  59 100 CALM      30.23R
FORT STEWART   MOCLDY    57  55  94 CALM      30.23S
STATESBORO     CLOUDY    58  58 100 CALM      30.25S
SYLVANIA       CLOUDY    58  58 100 CALM      30.25S
CLAXTON        MOCLDY    54  54 100 CALM      30.25S

...CSRA...CENTRAL AND FAR SOUTHEAST GEORGIA...

CITY           SKY/WX    TMP DP  RH WIND       PRES   REMARKS
THOMSON        CLOUDY    60  59  98 CALM      30.28F
AUGUSTA-BUSH   CLOUDY    59  56  89 CALM      30.24S
AUGUSTA-DANIEL LGT RAIN  65  57  75 E6        30.25S
SWAINSBORO     NOT AVBL
VIDALIA        CLOUDY    63  61  94 CALM      30.25S
EASTMAN        CLOUDY    62  62 100 CALM      30.27F
HAZLEHURST     FAIR      61  61 100 CALM      30.24F
ALMA           MOCLDY    56  55  97 CALM      30.24S FOG
WAYCROSS       FAIR      62  62 100 CALM      30.24F FOG
JESUP          CLOUDY    61  61 100 CALM      30.24F
BAXLEY         MOCLDY    59  57  94 CALM      30.24S FOG
BRUNSWICK      FAIR      57  55  94 CALM      30.25F
SAINT SIMONS   FAIR      56  54  93 SW5       30.25S

$$

SCZ027-028-034-036>038-045-046-048>050-GAZ119-141-030500-
...LAKE AND SUPPLEMENTAL COASTAL OBSERVATIONS...

STATION/POSITION TIME  TEMP    WIND        PRES    WAVE   SWELL
                       AIR SEA DIR/SP/G            HT/PER HT/PER/DIR
                 (UTC) (F)     (DEG/KT/KT) (MB)    (FT/S) (FT/S/D)
UPR LAKE MARION  NOT AVBL
WINYAH BAY       0345   53      60/  3     1025.0S
LAKE MURRAY      0400   58      80/  4/  4 1024.4R
ACE BASIN NERRS  NOT AVBL
FORT PULASKI     0300   54 50              1024.8R
SAPELO ISLAND    0400   57     180/  2     1024.0S

$$

ANZ835-935-AMZ111-154-330-350-352-354-370-450-454-472-030500-
...C-MAN AND BUOY OBSERVATIONS...

STATION/POSITION TIME  TEMP    WIND        PRES    WAVE   SWELL
                       AIR SEA DIR/SP/G            HT/PER HT/PER/DIR
                 (UTC) (F)     (DEG/KT/KT) (MB)    (FT/S) (FT/S/D)
BUOY 41004       0350   63 67   70/ 16/ 17 1024.7F   4/10   3/10
BUOY 41008       0350   54 53  240/  4/  6 1024.4S   2/ 9   2/110/ 9
FOLLY BEACH CMAN 0400   51      40/  7/  8 1026.0R
CAPERS NEARSHORE NOT AVBL
FRIPP NEARSHORE  0300   51     150/  4/  4 1023.7R


STATION/POSITION TIME  TEMP    WIND        PRES    WAVE   SWELL
                       AIR SEA DIR/SP/G            HT/PER HT/PER/DIR
                 (UTC) (F)     (DEG/KT/KT) (MB)    (FT/S) (FT/S/D)
5E ST. MARYS GA  0321      53                N/A     2/10
FRYING PAN BUOY  0350   57 62   80/ 16/ 17 1027.0R   4/ 4   2/150/ 9
BUOY 41025       NOT AVBL
CAPE LOOKOUT NC  0400   47      50/ 20/ 22 1028.2R
BUOY 41002       0350   67 73   30/ 17/ 19 1024.0F   5/ 9   3/110/ 9
BUOY 41010       0320   73 75   20/  4/  6 1024.5R
ST AUGUSTINE FL  0400   57      50/  4/  5 1024.8F


$$


USA.gov is the U.S. government's official web portal to all federal, state and local government web resources and services.